| time (UTC) | temp C | wind direction | speed KPH | gust KPH | rain 1hr cm | rain 24hr cm | rain mn cm | humidity % | barometer mb |
| 20260507013317 | 6 | 225 | 3.2 | 4.8 | 0.00 | 2.84 | 0.00 | 95 | 1011.3 |
| 20260507012317 | 6 | 225 | 3.2 | 4.8 | 0.00 | 2.84 | 0.00 | 95 | 1011.3 |
| 20260507011317 | 6 | 203 | 4.8 | 6.4 | 0.00 | 2.84 | 0.00 | 94 | 1011.2 |
| 20260507010317 | 6 | 203 | 4.8 | 6.4 | 0.00 | 2.84 | 0.00 | 94 | 1011.1 |
| 20260507005317 | 6 | 225 | 6.4 | 11.3 | 0.00 | 2.84 | 0.00 | 95 | 1011.2 |
| 20260507004337 | 6 | 270 | 3.2 | 6.4 | 0.00 | 2.84 | 0.00 | 94 | 1011.0 |
| 20260507003317 | 6 | 225 | 6.4 | 9.7 | 0.00 | 2.84 | 0.00 | 94 | 1011.1 |
| 20260507002317 | 6 | 225 | 8.0 | 11.3 | 0.00 | 2.84 | 0.00 | 94 | 1011.1 |
| 20260507001317 | 6 | 248 | 11.3 | 17.7 | 0.00 | 2.84 | 0.00 | 94 | 1011.0 |
| 20260507000317 | 6 | 248 | 12.9 | 16.1 | 0.00 | 2.84 | 0.00 | 94 | 1011.2 |
| 20260506235315 | 7 | 225 | 11.3 | 16.1 | 0.00 | 2.84 | 0.00 | 94 | 1011.3 |
| 20260506234317 | 7 | 248 | 12.9 | 19.3 | 0.00 | 2.84 | 0.00 | 95 | 1011.3 |
| 20260506233317 | 7 | 248 | 12.9 | 19.3 | 0.00 | 2.84 | 0.00 | 95 | 1011.3 |
| 20260506232317 | 7 | 225 | 9.7 | 12.9 | 0.00 | 2.84 | 0.00 | 95 | 1011.3 |
| 20260506231317 | 7 | 270 | 8.0 | 14.5 | 0.00 | 2.84 | 0.00 | 95 | 1011.3 |
| 20260506230317 | 7 | 248 | 6.4 | 11.3 | 0.00 | 2.84 | 0.00 | 95 | 1011.3 |
| 20260506225317 | 7 | 270 | 3.2 | 4.8 | 0.00 | 2.84 | 0.00 | 95 | 1011.2 |
| 20260506224317 | 7 | 248 | 6.4 | 11.3 | 0.00 | 2.84 | 0.00 | 95 | 1011.3 |
| 20260506223317 | 8 | 248 | 4.8 | 8.0 | 0.00 | 2.84 | 0.00 | 95 | 1011.2 |
| 20260506222317 | 8 | 225 | 9.7 | 14.5 | 0.00 | 2.84 | 0.00 | 95 | 1011.1 |
| 20260506221337 | 8 | 248 | 8.0 | 12.9 | 0.00 | 2.84 | 0.00 | 95 | 1011.0 |
| 20260506220317 | 8 | 270 | 4.8 | 8.0 | 0.00 | 2.84 | 0.00 | 95 | 1011.0 |
| 20260506215316 | 8 | 225 | 6.4 | 11.3 | 0.00 | 2.84 | 2.84 | 95 | 1010.9 |
| 20260506214315 | 8 | 248 | 6.4 | 9.7 | 0.00 | 2.84 | 2.84 | 95 | 1010.8 |
| 20260506213316 | 8 | 225 | 6.4 | 9.7 | 0.00 | 2.84 | 2.84 | 95 | 1010.8 |
| 20260506212315 | 8 | 225 | 6.4 | 9.7 | 0.00 | 2.84 | 2.84 | 95 | 1010.7 |
| 20260506211335 | 8 | 225 | 6.4 | 11.3 | 0.00 | 2.84 | 2.84 | 95 | 1010.6 |
| 20260506210316 | 8 | 225 | 8.0 | 11.3 | 0.00 | 2.84 | 2.84 | 95 | 1010.5 |
| 20260506205315 | 8 | 248 | 8.0 | 12.9 | 0.00 | 2.84 | 2.84 | 95 | 1010.4 |
| 20260506204316 | 8 | 248 | 8.0 | 9.7 | 0.00 | 2.84 | 2.84 | 94 | 1010.5 |
| 20260506203316 | 8 | 225 | 8.0 | 9.7 | 0.00 | 2.84 | 2.84 | 94 | 1010.5 |
| 20260506202336 | 8 | 203 | 6.4 | 9.7 | 0.00 | 2.84 | 2.84 | 95 | 1010.5 |
| 20260506201315 | 8 | 225 | 4.8 | 9.7 | 0.00 | 2.84 | 2.84 | 95 | 1010.4 |
| 20260506200315 | 8 | 225 | 3.2 | 4.8 | 0.00 | 2.84 | 2.84 | 94 | 1010.2 |
| 20260506195316 | 8 | 225 | 8.0 | 12.9 | 0.00 | 2.87 | 2.84 | 94 | 1010.3 |
| 20260506194316 | 8 | 225 | 6.4 | 9.7 | 0.00 | 2.87 | 2.84 | 94 | 1010.1 |
| 20260506193315 | 8 | 248 | 4.8 | 8.0 | 0.00 | 2.87 | 2.84 | 94 | 1010.0 |
| 20260506192315 | 8 | 248 | 8.0 | 9.7 | 0.00 | 2.87 | 2.84 | 94 | 1009.9 |
| 20260506191335 | 8 | 270 | 6.4 | 11.3 | 0.00 | 2.87 | 2.84 | 94 | 1009.9 |
| 20260506190315 | 9 | 248 | 9.7 | 16.1 | 0.00 | 2.87 | 2.84 | 94 | 1009.7 |
| 20260506185315 | 9 | 225 | 6.4 | 11.3 | 0.00 | 2.87 | 2.84 | 94 | 1009.5 |
| 20260506184315 | 9 | 248 | 8.0 | 11.3 | 0.03 | 2.87 | 2.84 | 94 | 1009.5 |
| 20260506183315 | 9 | 248 | 8.0 | 11.3 | 0.03 | 2.87 | 2.84 | 94 | 1009.3 |
| 20260506182315 | 10 | 248 | 6.4 | 8.0 | 0.08 | 2.87 | 2.84 | 94 | 1009.2 |
| 20260506181315 | 9 | 225 | 4.8 | 6.4 | 0.18 | 2.87 | 2.84 | 94 | 1009.1 |
| 20260506180335 | 9 | 293 | 4.8 | 6.4 | 0.33 | 2.87 | 2.84 | 94 | 1008.9 |
| 20260506175315 | 9 | 293 | 4.8 | 8.0 | 0.48 | 2.87 | 2.84 | 93 | 1008.9 |
| 20260506174315 | 9 | 293 | 6.4 | 9.7 | 0.64 | 2.84 | 2.82 | 93 | 1008.6 |
| 20260506173315 | 9 | 315 | 8.0 | 12.9 | 0.61 | 2.82 | 2.82 | 93 | 1008.4 |
| 20260506172317 | 10 | 293 | 11.3 | 14.5 | 0.58 | 2.77 | 2.77 | 93 | 1008.4 |
| 20260506171338 | 10 | 293 | 4.8 | 9.7 | 0.48 | 2.69 | 2.67 | 93 | 1008.4 |
| 20260506170317 | 10 | 315 | 11.3 | 17.7 | 0.33 | 2.54 | 2.51 | 93 | 1008.4 |
| 20260506165317 | 10 | 248 | 8.0 | 14.5 | 0.18 | 2.39 | 2.36 | 92 | 1008.5 |
| 20260506164317 | 10 | 293 | 9.7 | 14.5 | 0.03 | 2.21 | 2.18 | 92 | 1008.3 |
| 20260506163317 | 10 | 315 | 12.9 | 19.3 | 0.13 | 2.21 | 2.18 | 92 | 1008.3 |
| 20260506162317 | 10 | 315 | 12.9 | 17.7 | 0.30 | 2.21 | 2.18 | 92 | 1008.0 |
| 20260506161317 | 10 | 315 | 8.0 | 12.9 | 1.14 | 2.21 | 2.18 | 91 | 1007.9 |
| 20260506160317 | 10 | 293 | 8.0 | 14.5 | 2.08 | 2.21 | 2.18 | 91 | 1008.0 |
| 20260506155457 | 10 | 315 | 9.7 | 14.5 | 2.16 | 2.21 | 2.18 | 91 | 1007.9 |
| 20260506154317 | 10 | 315 | 6.4 | 12.9 | 2.13 | 2.18 | 2.16 | 89 | 1007.8 |
| 20260506153317 | 11 | 315 | 6.4 | 8.0 | 2.03 | 2.08 | 2.06 | 88 | 1008.0 |
| 20260506152317 | 11 | 0 | 4.8 | 6.4 | 1.85 | 1.91 | 1.88 | 86 | 1007.8 |
| 20260506151317 | 12 | 68 | 4.8 | 6.4 | 1.02 | 1.07 | 1.04 | 83 | 1007.5 |
| 20260506150317 | 14 | 113 | 1.6 | 4.8 | 0.08 | 0.13 | 0.10 | 79 | 1007.2 |
| 20260506145317 | 15 | 315 | 4.8 | 12.9 | 0.00 | 0.05 | 0.03 | 77 | 1006.8 |
| 20260506144317 | 15 | 315 | 4.8 | 6.4 | 0.00 | 0.05 | 0.03 | 76 | 1006.8 |
| 20260506142317 | 15 | 0.0 | 0.0 | 0.00 | 0.05 | 0.03 | 76 | 1007.1 | |
| 20260506141317 | 15 | 338 | 1.6 | 4.8 | 0.00 | 0.05 | 0.03 | 75 | 1007.0 |
| 20260506140357 | 16 | 315 | 3.2 | 6.4 | 0.00 | 0.05 | 0.03 | 73 | 1007.0 |
| 20260506135317 | 16 | 45 | 3.2 | 3.2 | 0.00 | 0.25 | 0.03 | 72 | 1007.0 |
| 20260506134317 | 16 | 248 | 3.2 | 4.8 | 0.00 | 0.25 | 0.03 | 72 | 1007.1 |
| 20260506133317 | 17 | 248 | 3.2 | 6.4 | 0.00 | 0.25 | 0.03 | 71 | 1007.0 |
| 20260506132317 | 17 | 293 | 6.4 | 9.7 | 0.00 | 0.25 | 0.03 | 72 | 1007.1 |
| 20260506131336 | 16 | 315 | 3.2 | 4.8 | 0.00 | 0.25 | 0.03 | 74 | 1007.1 |
| 20260506130316 | 16 | 270 | 3.2 | 9.7 | 0.00 | 0.25 | 0.03 | 75 | 1007.2 |
| 20260506125316 | 16 | 293 | 4.8 | 6.4 | 0.00 | 0.25 | 0.03 | 75 | 1007.3 |
| 20260506124316 | 15 | 248 | 1.6 | 4.8 | 0.00 | 0.25 | 0.03 | 76 | 1007.2 |
| 20260506123317 | 15 | 270 | 1.6 | 4.8 | 0.00 | 0.25 | 0.03 | 76 | 1007.3 |
| 20260506122317 | 15 | 315 | 1.6 | 4.8 | 0.00 | 0.25 | 0.03 | 75 | 1007.3 |
| 20260506121337 | 15 | 0.0 | 0.0 | 0.00 | 0.25 | 0.03 | 75 | 1007.3 | |
| 20260506120316 | 15 | 338 | 1.6 | 3.2 | 0.00 | 0.25 | 0.03 | 77 | 1007.2 |
| 20260506115316 | 15 | 248 | 1.6 | 3.2 | 0.00 | 0.25 | 0.03 | 74 | 1007.3 |
| 20260506114316 | 15 | 0.0 | 0.0 | 0.00 | 0.25 | 0.03 | 75 | 1007.3 | |
| 20260506113316 | 15 | 0.0 | 0.0 | 0.00 | 0.25 | 0.03 | 75 | 1007.3 | |
| 20260506112317 | 15 | 0.0 | 0.0 | 0.00 | 0.25 | 0.03 | 73 | 1007.5 | |
| 20260506111316 | 15 | 0.0 | 0.0 | 0.00 | 0.25 | 0.03 | 72 | 1007.8 | |
| 20260506110316 | 16 | 203 | 4.8 | 6.4 | 0.00 | 0.25 | 0.03 | 72 | 1007.9 |
| 20260506105316 | 16 | 225 | 4.8 | 6.4 | 0.00 | 0.25 | 0.03 | 71 | 1007.9 |
| 20260506104316 | 16 | 203 | 4.8 | 6.4 | 0.00 | 0.25 | 0.03 | 71 | 1008.0 |
| 20260506103316 | 16 | 203 | 4.8 | 9.7 | 0.00 | 0.25 | 0.03 | 72 | 1008.1 |
| 20260506102316 | 15 | 180 | 6.4 | 8.0 | 0.00 | 0.25 | 0.03 | 74 | 1008.1 |
| 20260506101316 | 15 | 135 | 4.8 | 4.8 | 0.00 | 0.25 | 0.03 | 74 | 1008.1 |
| 20260506100336 | 16 | 0.0 | 1.6 | 0.00 | 0.25 | 0.03 | 76 | 1008.0 | |
| 20260506095316 | 15 | 315 | 1.6 | 3.2 | 0.00 | 0.25 | 0.03 | 75 | 1008.1 |
| 20260506094316 | 15 | 180 | 1.6 | 3.2 | 0.00 | 0.25 | 0.03 | 76 | 1008.1 |
| 20260506093316 | 15 | 180 | 1.6 | 3.2 | 0.00 | 0.25 | 0.03 | 76 | 1008.1 |
| 20260506092316 | 14 | 0.0 | 0.0 | 0.00 | 0.25 | 0.03 | 77 | 1008.1 | |
| 20260506091316 | 14 | 180 | 1.6 | 3.2 | 0.00 | 0.25 | 0.03 | 78 | 1007.9 |
| 20260506090336 | 14 | 0.0 | 1.6 | 0.00 | 0.25 | 0.03 | 79 | 1007.9 | |
| 20260506085316 | 13 | 180 | 1.6 | 3.2 | 0.00 | 0.25 | 0.03 | 80 | 1008.0 |
| 20260506084316 | 13 | 180 | 1.6 | 3.2 | 0.00 | 0.25 | 0.03 | 80 | 1008.1 |
| 20260506083316 | 13 | 0.0 | 0.0 | 0.00 | 0.25 | 0.03 | 81 | 1008.1 | |
| 20260506082316 | 13 | 0.0 | 1.6 | 0.00 | 0.25 | 0.03 | 81 | 1008.2 | |
| 20260506081316 | 13 | 180 | 1.6 | 3.2 | 0.00 | 0.25 | 0.03 | 83 | 1008.3 |
| 20260506080316 | 13 | 0.0 | 0.0 | 0.00 | 0.25 | 0.03 | 81 | 1008.4 | |
| 20260506073316 | 13 | 203 | 4.8 | 4.8 | 0.00 | 0.25 | 0.03 | 80 | 1008.3 |
| 20260506072316 | 14 | 225 | 4.8 | 6.4 | 0.00 | 0.25 | 0.03 | 81 | 1008.4 |
| 20260506071316 | 13 | 180 | 3.2 | 8.0 | 0.00 | 0.25 | 0.03 | 84 | 1008.3 |
| 20260506070316 | 12 | 180 | 3.2 | 6.4 | 0.00 | 0.25 | 0.03 | 89 | 1008.2 |
| 20260506062356 | 10 | 0.0 | 0.0 | 0.00 | 0.25 | 0.03 | 95 | 1008.1 | |
| 20260506061316 | 9 | 0.0 | 0.0 | 0.00 | 0.25 | 0.03 | 95 | 1008.1 | |
| 20260506060316 | 9 | 0.0 | 0.0 | 0.00 | 0.25 | 0.03 | 95 | 1008.2 | |
| 20260506051316 | 7 | 0.0 | 0.0 | 0.00 | 0.25 | 0.03 | 95 | 1008.4 | |
| 20260506050316 | 7 | 0.0 | 0.0 | 0.00 | 0.25 | 0.03 | 94 | 1008.4 | |
| 20260506044315 | 7 | 0.0 | 0.0 | 0.00 | 0.25 | 0.03 | 94 | 1008.6 | |
| 20260506043336 | 6 | 0.0 | 0.0 | 0.00 | 0.25 | 0.03 | 94 | 1008.8 | |
| 20260506042315 | 6 | 0.0 | 0.0 | 0.00 | 0.25 | 0.03 | 94 | 1008.7 | |
| 20260506041315 | 6 | 0.0 | 0.0 | 0.00 | 0.25 | 0.03 | 94 | 1008.7 | |
| 20260506040316 | 6 | 0.0 | 0.0 | 0.00 | 0.25 | 0.03 | 94 | 1008.6 | |
| 20260506035316 | 6 | 0.0 | 0.0 | 0.00 | 0.25 | 0.03 | 94 | 1008.7 | |
| 20260506034316 | 6 | 0.0 | 0.0 | 0.00 | 0.25 | 0.03 | 94 | 1008.6 | |
| 20260506033315 | 6 | 0.0 | 0.0 | 0.03 | 0.25 | 0.03 | 93 | 1008.8 | |
| 20260506032315 | 6 | 0.0 | 0.0 | 0.03 | 0.25 | 0.03 | 93 | 1008.9 | |
| 20260506031316 | 6 | 0.0 | 0.0 | 0.03 | 0.25 | 0.03 | 93 | 1008.9 | |
| 20260506030315 | 6 | 0.0 | 0.0 | 0.03 | 0.25 | 0.03 | 93 | 1008.9 | |
| 20260506025315 | 6 | 0.0 | 0.0 | 0.03 | 0.25 | 0.03 | 93 | 1008.9 | |
| 20260506024455 | 7 | 0.0 | 0.0 | 0.03 | 0.25 | 0.03 | 93 | 1008.8 | |
| 20260506023315 | 7 | 0.0 | 0.0 | 0.00 | 0.23 | 0.00 | 94 | 1008.8 | |
| 20260506022315 | 7 | 0.0 | 0.0 | 0.00 | 0.23 | 0.00 | 93 | 1008.8 | |
| 20260506021315 | 7 | 0.0 | 0.0 | 0.00 | 0.23 | 0.00 | 93 | 1009.0 | |
| 20260506020315 | 7 | 0.0 | 0.0 | 0.00 | 0.23 | 0.00 | 94 | 1009.1 | |
| 20260506015315 | 7 | 0.0 | 0.0 | 0.00 | 0.23 | 0.00 | 93 | 1009.2 | |
| 20260506014315 | 7 | 0.0 | 0.0 | 0.00 | 0.23 | 0.00 | 93 | 1009.4 |